Flag for United Kingdom Weather past 2 weeks in Edinburgh, Scotland, United Kingdom

Now
45 °F

Passing clouds.


Feels Like: 37 °F
Forecast: N/A
Wind: 17 mph from West

Location: Edinburgh Airport

Current Time: Mar 28, 2015 at 7:38:46 PM

Latest Report: Mar 28, 2015 at 7:20 PM


Visibility: N/A

Pressure: 29.39 "Hg

Humidity: 76%

Dew point: 37 °F

Location of EdinburghLocation

Historic Weather in Edinburgh — Graph

°F

Edinburgh temperature yesterday

Maximum temperature yesterday: 52 °F (at 1:50 PM)
Minimum temperature yesterday: 32 °F (at 3:20 AM)
Average temperature yesterday: 42 °F

Past Weeks' High & Low Weather Summary

 TemperatureHumidityPressure
High55 °F (Mar 20, 12:20 PM)100% (Mar 15, 3:20 AM)30.69 "Hg (Mar 15, 3:20 AM)
Low27 °F (Mar 15, 2:50 AM)47% (Mar 23, 2:50 PM)29.27 "Hg (Mar 28, 10:50 AM)
Average42 °F79%30.16 "Hg
* Reported Mar 13 6:20 PM — Mar 28 6:20 PM, Edinburgh, Weather by CustomWeather, © 2015

Note: Actual official high and low records may vary slightly from our data, if they occured in-between our weather recording intervals... More about our weather records

Advertising

Edinburgh weather history for previous 24 hours

 ConditionsComfort  
Time TempWeatherWind HumidityBarometerVisibility
6:20 PM
Sat, Mar 28
45 °FScattered clouds.21 mph76%29.39 "HgN/A
5:50 PM46 °FScattered clouds.18 mph76%29.39 "HgN/A
5:20 PM46 °FScattered clouds.18 mph76%29.39 "HgN/A
4:50 PM46 °FScattered clouds.20 mph76%29.39 "HgN/A
4:20 PM48 °FScattered clouds.16 mph71%29.36 "HgN/A
3:50 PM50 °FPartly sunny.21 mph71%29.36 "HgN/A
3:20 PM50 °FScattered clouds.23 mph71%29.33 "HgN/A
2:50 PM50 °FScattered clouds.25 mph76%29.36 "HgN/A
2:20 PM50 °FPartly sunny.29 mph71%29.33 "HgN/A
1:50 PM52 °FBroken clouds.29 mph72%29.30 "HgN/A
1:20 PM52 °FBroken clouds.32 mph72%29.30 "HgN/A
12:50 PM54 °FBroken clouds.30 mph72%29.30 "HgN/A
12:20 PM54 °FSprinkles. Broken clouds.33 mph77%29.30 "HgN/A
11:50 AM55 °FBroken clouds.35 mph77%29.27 "HgN/A
11:20 AM55 °FPartly sunny.23 mph88%29.27 "HgN/A
10:50 AM55 °FLight rain. Broken clouds.21 mph82%29.27 "HgN/A
10:20 AM54 °FLight rain. Partly sunny.20 mph88%29.30 "HgN/A
9:50 AM52 °FLight rain. Partly sunny.23 mph88%29.30 "Hg5 mi
9:20 AM52 °FScattered showers. Partly sunny.26 mph88%29.33 "HgN/A
8:50 AM50 °FLight rain. Passing clouds.23 mph88%29.33 "HgN/A
8:20 AM50 °FLight rain. Passing clouds.23 mph82%29.36 "HgN/A
7:50 AM48 °FLight rain. Passing clouds.22 mph87%29.39 "HgN/A
7:20 AM48 °FLight rain. Scattered clouds.20 mph82%29.42 "HgN/A
6:50 AM46 °FLight rain. Partly sunny.16 mph87%29.45 "HgN/A
6:20 AM43 °FLight rain. Broken clouds.5 mph87%29.47 "HgN/A
5:50 AM41 °FLight rain. Overcast.5 mph93%29.53 "HgN/A
5:20 AM43 °FLight rain. Passing clouds.3 mph81%29.56 "HgN/A
4:50 AM41 °FLight rain. Partly cloudy.6 mph87%29.59 "HgN/A
4:20 AM39 °FLight rain. Passing clouds.7 mph87%29.65 "HgN/A
3:20 AM39 °FLight rain. Overcast.6 mph87%29.74 "Hg6 mi
2:50 AM41 °FLight rain. Passing clouds.5 mph76%29.77 "HgN/A
2:20 AM43 °FClear.7 mph61%29.80 "Hg10 mi
1:50 AM43 °FClear.9 mph61%29.83 "Hg10 mi
1:20 AM43 °FClear.10 mph61%29.86 "Hg10 mi
12:50 AM43 °FPassing clouds.9 mph66%29.89 "HgN/A
12:20 AM43 °FClear.8 mph66%29.92 "Hg10 mi
11:50 PM
Fri, Mar 27
43 °FClear.8 mph66%29.92 "Hg10 mi
11:20 PM43 °FClear.8 mph61%29.95 "Hg10 mi
10:50 PM41 °FPassing clouds.7 mph66%29.95 "HgN/A
10:20 PM41 °FClear.13 mph70%29.95 "Hg10 mi
9:50 PM41 °FClear.13 mph70%29.98 "Hg10 mi
9:20 PM43 °FClear.10 mph66%30.01 "Hg10 mi
8:50 PM41 °FClear.15 mph76%29.98 "Hg10 mi
8:20 PM41 °FClear.14 mph76%30.01 "Hg10 mi
7:50 PM43 °FClear.12 mph66%30.01 "Hg10 mi
7:20 PM41 °FClear.8 mph70%30.01 "Hg10 mi
Weather by CustomWeather, © 2015

See weather overviewHow to use our weather pages